EWS-G1 (GOES 13) [+]

Last updated on July 6, 2021, 3:23 p.m. UTC

1 29155U 06018A   21186.93382723  .00000049  00000-0  00000-0 0  9995
2 29155   0.0809 241.2694 0004739 306.6530 133.5841  1.00269878 25255
UTC
Height (km)
Latitude
Longitude
Inclination
Orbital Period
UTC large
Height (km)
Speed (km/s)
/
Latitude / Longitude
Inclination (degrees)
Orbital Period (minutes)
Azimuth
Elevation
Range (km)
Doppler Factor
iOS Compass Heading
iOS Angle